[[{"header":{"parameterUnit":"m.s-1","parameterCategory":2,"la1":30.2991,"la2":30.254,"lo1":-89.0895,"lo2":-89.0444,"dy":0.0017,"dx":0.0017,"nx":28,"ny":28,"refTime":"2024-02-04T03:00:00:Z","depth":"0","parameterNumber":2,"parameterNumberName":"U-component_of_CURRENTS"},"data":[0,0,0,0,0,0,0,0,0,0,0,0,0,0,0,0,0,0,0,0,0,0,0,0,0,0,0,0,0,0,0,0,0,0,0,0,0,0,0,0,0,0,0,0,0,0,0,0,0,0,0,0,0,0,0,0,0,0,-0.299,-0.299,0,-0.3013,-0.3013,-0.3013,-0.2975,-0.2974,-0.2973,-0.2972,-0.2957,-0.2958,-0.2958,0,0,0,0,0,0,0,0,0,0,0,0,0,-0.2934,-0.2934,-0.299,-0.299,-0.2991,-0.3013,-0.3013,-0.3013,-0.2975,-0.2974,-0.2972,-0.2971,-0.2957,-0.2958,-0.2958,0,0,0,0,0,0,0,0,0,0,0,0,0,-0.2956,-0.2935,-0.299,-0.2976,-0.2975,-0.3013,-0.3013,-0.3013,-0.2975,-0.2974,-0.2972,-0.297,-0.2956,-0.2957,-0.2958,-0.2999,0,0,-0.2962,-0.2962,0,0,0,0,0,0,0,0,-0.2954,-0.2958,-0.2977,-0.2977,-0.2976,-0.2991,-0.2988,-0.3007,-0.2976,-0.2973,-0.2972,-0.297,-0.2967,-0.2967,-0.2973,-0.2998,-0.2998,-0.2962,-0.2962,-0.2963,-0.2963,0,0,0,0,0,0,0,-0.2953,-0.2957,-0.2997,-0.2978,-0.2977,-0.2975,-0.2976,-0.2991,-0.2978,-0.2973,-0.2971,-0.2977,-0.2966,-0.2973,-0.2973,-0.2998,-0.2962,-0.2963,-0.2963,-0.2964,-0.3009,-0.301,0,0,0,0,0,0,-0.2955,-0.2955,-0.2996,-0.2998,-0.2962,-0.2978,-0.2979,-0.2986,-0.2978,-0.2976,-0.2978,-0.2975,-0.2972,-0.2972,-0.2972,-0.298,-0.2963,-0.2964,-0.2964,-0.3009,-0.3009,-0.301,0,0,0,0,0,0,-0.2953,-0.2958,-0.2995,-0.2978,-0.2983,-0.298,-0.2989,-0.2988,-0.2987,-0.2983,-0.2979,-0.2979,-0.297,-0.2971,-0.2979,-0.298,-0.2964,-0.2965,-0.3008,-0.3009,-0.301,-0.3021,0,0,0,0,0,0,-0.2952,-0.2958,-0.2963,-0.2978,-0.2984,-0.3017,-0.2991,-0.2989,-0.2995,-0.299,-0.2983,-0.298,-0.2969,-0.2977,-0.298,-0.2981,-0.2966,-0.3007,-0.3008,-0.3009,-0.302,-0.3023,-0.3025,0,0,0,0,0,-0.295,-0.2965,-0.2963,-0.2968,-0.2991,-0.3018,-0.3021,-0.3012,-0.2996,-0.3003,-0.2993,-0.2979,-0.2986,-0.2979,-0.2982,-0.2984,-0.3007,-0.3008,-0.3009,-0.3019,-0.3022,-0.3025,0,0,0,0,0,0,-0.2939,-0.2963,-0.2961,-0.2981,-0.2997,-0.3012,-0.3019,-0.3017,-0.3017,-0.3008,-0.2995,-0.2992,-0.2998,-0.2997,-0.299,-0.3001,-0.2992,-0.2994,-0.2998,-0.3001,-0.3003,-0.2992,-0.2967,0,0,0,0,0,-0.2943,-0.2958,-0.2981,-0.2994,-0.3005,-0.3013,-0.3022,-0.302,-0.3025,-0.3022,-0.3017,-0.3011,-0.3011,-0.3009,-0.3012,-0.3027,-0.3008,-0.3028,-0.303,-0.3032,-0.3026,-0.2997,-0.2995,-0.3014,-0.3014,-0.3014,0,0,-0.2941,-0.2957,-0.2964,-0.2993,-0.3002,-0.3025,-0.3013,-0.3031,-0.304,-0.3023,-0.3029,-0.3023,-0.3018,-0.3025,-0.3027,-0.302,-0.302,-0.3034,-0.3035,-0.3028,-0.2998,-0.2996,-0.2994,-0.3015,-0.3015,-0.3015,0,0,-0.295,-0.2961,-0.2979,-0.2998,-0.3022,-0.3033,-0.304,-0.3058,-0.3053,-0.3072,-0.3051,-0.3042,-0.3059,-0.304,-0.3037,-0.3057,-0.3035,-0.3064,-0.3062,-0.3035,-0.3033,-0.303,-0.3013,-0.3009,-0.3061,-0.3061,-0.3061,0,-0.2944,-0.2969,-0.2987,-0.3012,-0.3025,-0.3037,-0.3058,-0.3068,-0.3082,-0.308,-0.3074,-0.307,-0.3062,-0.3052,-0.3052,-0.3059,-0.3045,-0.3051,-0.3036,-0.3033,-0.303,-0.3013,-0.3008,-0.3062,-0.3062,-0.3062,-0.3062,0,-0.2968,-0.2987,-0.3,-0.3033,-0.3054,-0.3073,-0.3095,-0.3106,-0.3107,-0.311,-0.3105,-0.3091,-0.3082,-0.308,-0.3072,-0.3051,-0.3048,-0.3043,-0.3025,-0.3029,-0.3011,-0.3006,-0.3063,-0.3063,-0.3063,-0.3062,0,0,-0.2944,-0.3005,-0.3005,-0.3019,-0.3063,-0.3079,-0.3106,-0.3124,-0.3128,-0.3133,-0.3129,-0.3116,-0.3099,-0.3093,-0.3075,-0.3047,-0.3017,-0.3037,-0.3035,-0.3012,-0.2963,-0.294,-0.2932,-0.3007,-0.3006,-0.3006,-0.296,0,-0.2948,-0.299,-0.3024,-0.3053,-0.3072,-0.31,-0.3123,-0.3141,-0.3151,-0.3155,-0.3131,-0.3127,-0.3108,-0.3098,-0.3067,-0.3036,-0.3003,-0.303,-0.2969,-0.2967,-0.2939,-0.2925,-0.2881,-0.2835,-0.2955,-0.2954,-0.2954,0,-0.2945,-0.2977,-0.3008,-0.3054,-0.3064,-0.3086,-0.3112,-0.3137,-0.3154,-0.3162,-0.3152,-0.3143,-0.311,-0.3091,-0.3024,-0.3045,-0.3,-0.2969,-0.2967,-0.2934,-0.2934,-0.285,-0.2821,-0.2802,-0.2945,-0.2946,-0.2947,0,-0.2894,-0.2954,-0.2973,-0.299,-0.3053,-0.3064,-0.3093,-0.3125,-0.3143,-0.3159,-0.3171,-0.314,-0.3122,-0.3068,-0.3016,-0.3017,-0.2941,-0.2936,-0.287,-0.2869,-0.2813,-0.2808,-0.2748,-0.287,-0.287,-0.287,-0.2871,0,-0.2868,-0.2879,-0.2948,-0.2956,-0.2972,-0.3031,-0.3047,-0.3078,-0.3122,-0.3139,-0.3159,-0.3161,-0.3112,-0.3075,-0.302,-0.2934,-0.2943,-0.286,-0.2848,-0.2818,-0.2814,-0.278,-0.2785,-0.2869,-0.2869,-0.2869,-0.287,0,-0.2791,-0.2843,-0.2862,-0.2927,-0.2944,-0.2949,-0.3017,-0.3034,-0.3093,-0.3118,-0.3126,-0.3162,-0.3117,-0.3066,-0.2982,-0.2934,-0.2815,-0.2823,-0.2798,-0.2784,-0.2701,-0.2708,-0.2597,-0.2524,-0.2739,-0.2738,-0.2737,0,-0.2751,-0.2754,-0.2815,-0.2822,-0.2845,-0.2877,-0.29,-0.299,-0.3022,-0.3114,-0.312,-0.3116,-0.3096,-0.2993,-0.2905,-0.2803,-0.276,-0.2705,-0.2688,-0.268,-0.2679,-0.2658,-0.2603,-0.2624,-0.2623,-0.2621,-0.262,0,-0.2658,-0.2679,-0.2695,-0.2718,-0.2741,-0.2776,-0.2826,-0.2852,-0.2963,-0.3005,-0.3057,-0.306,-0.3009,-0.2907,-0.2797,-0.2722,-0.2655,-0.2673,-0.2661,-0.2576,-0.2551,-0.2481,-0.2687,-0.2608,-0.2609,-0.261,-0.2611,-0.2611,-0.2564,-0.2553,-0.2576,-0.2583,-0.2619,-0.2645,-0.2622,-0.2715,-0.2756,-0.2805,-0.2918,-0.2923,-0.2914,-0.276,-0.2687,-0.2565,-0.2544,-0.2497,-0.2504,-0.2482,-0.2409,-0.2595,-0.2508,-0.2509,-0.2509,-0.251,-0.251,0,-0.2433,-0.2435,-0.2441,-0.2445,-0.2428,-0.2497,-0.254,-0.2507,-0.2511,-0.2648,-0.2684,-0.2767,-0.2687,-0.2664,-0.2567,-0.2447,-0.2358,-0.2369,-0.2333,-0.2279,-0.244,-0.2434,-0.2332,-0.2332,-0.2332,-0.2332,-0.2332,-0.2332,-0.236,-0.2313,-0.2322,-0.2242,-0.2244,-0.2168,-0.2154,-0.2154,-0.2216,-0.2284,-0.2399,-0.2548,-0.2531,-0.2689,-0.2539,-0.241,-0.2295,-0.2225,-0.2188,-0.2337,-0.235,-0.2363,-0.2357,-0.2241,-0.224,-0.1978,-0.1976,-0.1975]},{"header":{"parameterUnit":"m.s-1","parameterCategory":2,"la1":30.2991,"la2":30.254,"lo1":-89.0895,"lo2":-89.0444,"dy":0.0017,"dx":0.0017,"nx":28,"ny":28,"refTime":"2024-02-04T03:00:00:Z","depth":"0","parameterNumber":3,"parameterNumberName":"V-component_of_CURRENTS"},"data":[0,0,0,0,0,0,0,0,0,0,0,0,0,0,0,0,0,0,0,0,0,0,0,0,0,0,0,0,0,0,0,0,0,0,0,0,0,0,0,0,0,0,0,0,0,0,0,0,0,0,0,0,0,0,0,0,0,0,-0.0472,-0.0471,0,-0.0402,-0.0401,-0.04,-0.0346,-0.0346,-0.0345,-0.0345,-0.0222,-0.0219,-0.0217,0,0,0,0,0,0,0,0,0,0,0,0,0,-0.0504,-0.0504,-0.0472,-0.0471,-0.047,-0.0402,-0.0401,-0.04,-0.0346,-0.0346,-0.0345,-0.0345,-0.0223,-0.022,-0.0216,0,0,0,0,0,0,0,0,0,0,0,0,0,-0.0467,-0.0504,-0.0472,-0.0436,-0.0432,-0.0403,-0.0401,-0.04,-0.0346,-0.0346,-0.0345,-0.0344,-0.0224,-0.022,-0.0216,-0.02,0,0,-0.0203,-0.0201,0,0,0,0,0,0,0,0,-0.0469,-0.0465,-0.0442,-0.0439,-0.0434,-0.0384,-0.0368,-0.0331,-0.0346,-0.0377,-0.0345,-0.0344,-0.0273,-0.0264,-0.0251,-0.0195,-0.0189,-0.0202,-0.0199,-0.0198,-0.0196,0,0,0,0,0,0,0,-0.0472,-0.0468,-0.0443,-0.0442,-0.0437,-0.0406,-0.04,-0.0361,-0.0327,-0.0374,-0.0371,-0.0366,-0.027,-0.0256,-0.0248,-0.0188,-0.0202,-0.0198,-0.0196,-0.0194,-0.0092,-0.0092,0,0,0,0,0,0,-0.0487,-0.0471,-0.0445,-0.0441,-0.0452,-0.0406,-0.0399,-0.0399,-0.0328,-0.0318,-0.0366,-0.0364,-0.0263,-0.0253,-0.0243,-0.0207,-0.0198,-0.0194,-0.0191,-0.0093,-0.0092,-0.0092,0,0,0,0,0,0,-0.0488,-0.0486,-0.0448,-0.0455,-0.0448,-0.0407,-0.0406,-0.0398,-0.0384,-0.0323,-0.0311,-0.0361,-0.0262,-0.0249,-0.0211,-0.0202,-0.0192,-0.0188,-0.0093,-0.0092,-0.0092,-0.0144,0,0,0,0,0,0,-0.0489,-0.0486,-0.0493,-0.0456,-0.0448,-0.0435,-0.0407,-0.0397,-0.0383,-0.0378,-0.0315,-0.0303,-0.0261,-0.0218,-0.0206,-0.0196,-0.0184,-0.0093,-0.0093,-0.0092,-0.0142,-0.0145,-0.0148,0,0,0,0,0,-0.0491,-0.0505,-0.0494,-0.0491,-0.0458,-0.0436,-0.0429,-0.0395,-0.0384,-0.038,-0.0338,-0.0305,-0.0208,-0.0214,-0.0201,-0.0189,-0.0093,-0.0093,-0.0092,-0.0141,-0.0145,-0.0148,0,0,0,0,0,0,-0.052,-0.05,-0.0487,-0.0493,-0.0468,-0.0427,-0.0424,-0.0403,-0.0367,-0.0363,-0.0305,-0.029,-0.0254,-0.0218,-0.0226,-0.016,-0.0144,-0.0141,-0.0185,-0.0188,-0.0191,-0.0199,-0.0181,0,0,0,0,0,-0.0532,-0.0539,-0.0507,-0.0512,-0.0503,-0.0466,-0.0453,-0.0432,-0.0396,-0.0381,-0.0336,-0.0287,-0.0243,-0.0214,-0.0174,-0.0139,-0.0099,-0.0122,-0.0125,-0.0128,-0.0125,-0.0069,-0.0066,-0.0092,-0.0092,-0.0092,0,0,-0.0548,-0.0535,-0.054,-0.0519,-0.0498,-0.049,-0.0456,-0.0444,-0.0431,-0.0372,-0.0344,-0.03,-0.0238,-0.0199,-0.0178,-0.0166,-0.0099,-0.0128,-0.013,-0.0126,-0.0068,-0.0066,-0.0063,-0.0092,-0.0092,-0.0092,0,0,-0.0582,-0.0569,-0.0585,-0.0567,-0.0542,-0.0515,-0.0516,-0.0477,-0.0453,-0.0423,-0.0375,-0.0327,-0.0266,-0.0213,-0.018,-0.0174,-0.0123,-0.0164,-0.0175,-0.0121,-0.0119,-0.0116,-0.0063,-0.0056,-0.0158,-0.0159,-0.0159,0,-0.0601,-0.0614,-0.0585,-0.0589,-0.0579,-0.0531,-0.0538,-0.0505,-0.0458,-0.0435,-0.0422,-0.0319,-0.0269,-0.0205,-0.0201,-0.0179,-0.0145,-0.0168,-0.0125,-0.0122,-0.0118,-0.0065,-0.0055,-0.0161,-0.0161,-0.016,-0.016,0,-0.0644,-0.0649,-0.0656,-0.0645,-0.0628,-0.0628,-0.058,-0.0557,-0.0523,-0.0482,-0.0422,-0.0352,-0.0286,-0.0262,-0.0227,-0.0172,-0.0155,-0.0143,-0.0119,-0.0119,-0.0062,-0.0052,-0.0164,-0.0164,-0.0163,-0.0162,0,0,-0.07,-0.0691,-0.0692,-0.0697,-0.0659,-0.0652,-0.0625,-0.0583,-0.0561,-0.0501,-0.0461,-0.0377,-0.0332,-0.0291,-0.0235,-0.0181,-0.0123,-0.0155,-0.015,-0.0107,-0.0004,0.0055,0.0073,-0.0107,-0.0106,-0.0104,0.0024,0,-0.0743,-0.0775,-0.0747,-0.0763,-0.0775,-0.0716,-0.0694,-0.0645,-0.0589,-0.0536,-0.0444,-0.0391,-0.0344,-0.0314,-0.0249,-0.0152,-0.0097,-0.0159,-0.0006,-0.0001,0.0048,0.0087,0.0142,0.0265,0.0035,0.0036,0.0038,0,-0.0791,-0.0808,-0.0841,-0.0828,-0.0825,-0.0819,-0.0772,-0.0744,-0.0647,-0.06,-0.0517,-0.0446,-0.0341,-0.0316,-0.0143,-0.0186,-0.0102,-0.0031,-0.0024,0.0059,0.0079,0.023,0.0294,0.0458,0.0055,0.0053,0.0052,0,-0.0858,-0.0867,-0.09,-0.0897,-0.0874,-0.0869,-0.0848,-0.0769,-0.0742,-0.0641,-0.0602,-0.0471,-0.0403,-0.0278,-0.0114,-0.0133,0.0073,0.0067,0.02,0.0205,0.0298,0.0309,0.0538,0.0175,0.0175,0.0175,0.0174,0,-0.0919,-0.094,-0.0938,-0.0959,-0.0988,-0.0938,-0.0937,-0.089,-0.0812,-0.0772,-0.0645,-0.0574,-0.0393,-0.0249,-0.0115,0.0096,0.0079,0.0215,0.0251,0.0282,0.0289,0.0472,0.053,0.0179,0.0178,0.0177,0.0177,0,-0.0986,-0.0984,-0.1023,-0.1023,-0.1025,-0.1047,-0.1018,-0.1008,-0.0919,-0.086,-0.0833,-0.0646,-0.0441,-0.0245,-0.0022,0.01,0.0398,0.0352,0.038,0.0417,0.0681,0.0732,0.0988,0.1076,0.052,0.0522,0.0524,0,-0.1022,-0.1054,-0.1088,-0.1123,-0.1128,-0.1146,-0.1155,-0.1081,-0.1057,-0.0895,-0.0868,-0.0658,-0.0482,-0.0108,0.015,0.0419,0.0521,0.06,0.0577,0.073,0.0813,0.0838,0.0894,0.068,0.0684,0.0686,0.0688,0,-0.1093,-0.1105,-0.1143,-0.1222,-0.1254,-0.1278,-0.1277,-0.1269,-0.116,-0.1073,-0.0907,-0.0751,-0.0354,0.0013,0.0368,0.0516,0.0739,0.0659,0.0822,0.0973,0.1013,0.1103,0.0554,0.0711,0.0709,0.0707,0.0706,0.0705,-0.1138,-0.1189,-0.1245,-0.1317,-0.1361,-0.1394,-0.1403,-0.1363,-0.1301,-0.1138,-0.0956,-0.067,-0.0116,0.0419,0.0606,0.1014,0.0941,0.1111,0.1165,0.1179,0.1266,0.0767,0.0955,0.0955,0.0954,0.0953,0.0953,0,-0.1193,-0.1252,-0.1334,-0.1412,-0.1475,-0.147,-0.1468,-0.1437,-0.1357,-0.115,-0.0944,-0.0306,0.0234,0.0717,0.1316,0.1513,0.1534,0.1599,0.1656,0.169,0.127,0.1278,0.1541,0.1541,0.1541,0.154,0.154,0.154,-0.1221,-0.1316,-0.1365,-0.1492,-0.1541,-0.1579,-0.157,-0.1493,-0.134,-0.0982,-0.0617,-0.0303,0.043,0.1449,0.1974,0.1991,0.2143,0.2127,0.22,0.1917,0.1875,0.1835,0.186,0.224,0.2241,0.2606,0.261,0.2613]}],[{"header":{"parameterUnit":"m.s-1","parameterCategory":2,"la1":30.2991,"la2":30.254,"lo1":-89.0895,"lo2":-89.0444,"dy":0.0017,"dx":0.0017,"nx":28,"ny":28,"refTime":"2024-02-04T03:00:00:Z","depth":"2","parameterNumber":2,"parameterNumberName":"U-component_of_CURRENTS"},"data":[0,0,0,0,0,0,0,0,0,0,0,0,0,0,0,0,0,0,0,0,0,0,0,0,0,0,0,0,0,0,0,0,0,0,0,0,0,0,0,0,0,0,0,0,0,0,0,0,0,0,0,0,0,0,0,0,0,0,-0.2837,-0.2837,0,-0.2859,-0.2859,-0.2859,-0.2827,-0.2826,-0.2825,-0.2825,-0.2813,-0.2814,-0.2815,0,0,0,0,0,0,0,0,0,0,0,0,0,-0.2783,-0.2784,-0.2837,-0.2837,-0.2838,-0.2859,-0.2859,-0.286,-0.2828,-0.2826,-0.2825,-0.2824,-0.2813,-0.2814,-0.2815,0,0,0,0,0,0,0,0,0,0,0,0,0,-0.2805,-0.2785,-0.2837,-0.2826,-0.2825,-0.2859,-0.2859,-0.286,-0.2828,-0.2826,-0.2825,-0.2824,-0.2813,-0.2814,-0.2815,-0.285,0,0,-0.2818,-0.2818,0,0,0,0,0,0,0,0,-0.2803,-0.2806,-0.2827,-0.2826,-0.2826,-0.2841,-0.2837,-0.2855,-0.2828,-0.2825,-0.2824,-0.2823,-0.2822,-0.2822,-0.2827,-0.2849,-0.2849,-0.2818,-0.2818,-0.2819,-0.2819,0,0,0,0,0,0,0,-0.2802,-0.2805,-0.2844,-0.2827,-0.2827,-0.2826,-0.2827,-0.284,-0.2829,-0.2825,-0.2823,-0.2829,-0.2821,-0.2827,-0.2827,-0.2849,-0.2818,-0.2819,-0.2819,-0.2819,-0.2863,-0.2863,0,0,0,0,0,0,-0.2804,-0.2804,-0.2843,-0.2845,-0.2813,-0.2828,-0.2829,-0.2836,-0.283,-0.2828,-0.283,-0.2827,-0.2826,-0.2826,-0.2826,-0.2837,-0.2819,-0.282,-0.282,-0.2862,-0.2863,-0.2863,0,0,0,0,0,0,-0.2803,-0.2807,-0.2842,-0.2826,-0.2831,-0.283,-0.2838,-0.2837,-0.2839,-0.2834,-0.2831,-0.2833,-0.2824,-0.2825,-0.2834,-0.2837,-0.282,-0.2821,-0.2861,-0.2862,-0.2863,-0.2878,0,0,0,0,0,0,-0.2801,-0.2807,-0.2812,-0.2826,-0.2832,-0.2863,-0.284,-0.2839,-0.2846,-0.2843,-0.2837,-0.2834,-0.2823,-0.2833,-0.2835,-0.2838,-0.2822,-0.2861,-0.2862,-0.2863,-0.2877,-0.2879,-0.2882,0,0,0,0,0,-0.2799,-0.2813,-0.2813,-0.2817,-0.284,-0.2864,-0.2867,-0.286,-0.2848,-0.2855,-0.2847,-0.2834,-0.2841,-0.2834,-0.2837,-0.284,-0.286,-0.2861,-0.2863,-0.2876,-0.2879,-0.2882,0,0,0,0,0,0,-0.279,-0.2812,-0.2811,-0.283,-0.2846,-0.2859,-0.2867,-0.2866,-0.2868,-0.2861,-0.2848,-0.2846,-0.2854,-0.2852,-0.2845,-0.2856,-0.2846,-0.2848,-0.2856,-0.2859,-0.2861,-0.2851,-0.2822,0,0,0,0,0,-0.2794,-0.2808,-0.2829,-0.2843,-0.2853,-0.2862,-0.2871,-0.2871,-0.2876,-0.2874,-0.287,-0.2865,-0.2865,-0.2864,-0.2866,-0.2881,-0.2862,-0.2883,-0.2886,-0.2888,-0.2882,-0.2854,-0.2853,-0.2868,-0.2868,-0.2868,0,0,-0.2793,-0.2808,-0.2814,-0.2842,-0.2852,-0.2873,-0.2863,-0.2881,-0.2891,-0.2875,-0.2882,-0.2878,-0.2872,-0.2879,-0.2882,-0.2875,-0.2877,-0.2889,-0.2891,-0.2884,-0.2855,-0.2853,-0.2852,-0.2869,-0.2869,-0.2868,0,0,-0.2802,-0.2814,-0.283,-0.2849,-0.2873,-0.2883,-0.289,-0.2908,-0.2905,-0.2925,-0.2905,-0.2899,-0.2915,-0.2896,-0.2892,-0.2913,-0.2892,-0.292,-0.2921,-0.2895,-0.2893,-0.2891,-0.2875,-0.2871,-0.2919,-0.2919,-0.2919,0,-0.2798,-0.282,-0.2838,-0.2862,-0.2875,-0.2888,-0.2908,-0.2918,-0.2933,-0.2932,-0.2928,-0.2926,-0.2918,-0.2908,-0.291,-0.2916,-0.2903,-0.291,-0.2896,-0.2894,-0.2892,-0.2875,-0.2871,-0.292,-0.2919,-0.2919,-0.2919,0,-0.282,-0.2839,-0.2852,-0.2882,-0.2903,-0.2922,-0.2943,-0.2956,-0.2959,-0.2963,-0.296,-0.2948,-0.294,-0.2938,-0.2931,-0.2912,-0.291,-0.2903,-0.2885,-0.2891,-0.2874,-0.2869,-0.2921,-0.2921,-0.292,-0.292,0,0,-0.2799,-0.2855,-0.2857,-0.287,-0.2913,-0.2928,-0.2954,-0.2973,-0.2979,-0.2986,-0.2984,-0.2972,-0.2959,-0.2953,-0.2937,-0.291,-0.2884,-0.2901,-0.2899,-0.2878,-0.2833,-0.2807,-0.28,-0.2875,-0.2874,-0.2873,-0.2831,0,-0.2803,-0.2842,-0.2874,-0.2903,-0.2921,-0.2949,-0.2971,-0.299,-0.3002,-0.3008,-0.2987,-0.2985,-0.2968,-0.2961,-0.2932,-0.2902,-0.2871,-0.2896,-0.2837,-0.2835,-0.2805,-0.2793,-0.2583,-0.2525,-0.2826,-0.2825,-0.2825,0,-0.2801,-0.283,-0.286,-0.2904,-0.2915,-0.2937,-0.2964,-0.2989,-0.3007,-0.3017,-0.301,-0.3004,-0.2974,-0.2957,-0.2893,-0.2913,-0.2871,-0.284,-0.2838,-0.2801,-0.2799,-0.2568,-0.2505,-0.2816,-0.2817,-0.2818,-0.2818,0,-0.2753,-0.281,-0.2829,-0.2845,-0.2906,-0.2918,-0.2947,-0.298,-0.2998,-0.3016,-0.3031,-0.3004,-0.2988,-0.2937,-0.2887,-0.2889,-0.2816,-0.281,-0.2743,-0.2742,-0.2544,-0.2526,-0.2747,-0.2747,-0.2747,-0.2747,-0.2748,0,-0.2729,-0.274,-0.2806,-0.2815,-0.2833,-0.289,-0.2908,-0.2939,-0.2983,-0.3,-0.3022,-0.3025,-0.298,-0.2944,-0.2892,-0.2808,-0.2818,-0.2734,-0.2722,-0.2547,-0.2531,-0.2768,-0.2771,-0.2746,-0.2746,-0.2747,-0.2747,0,-0.2657,-0.2707,-0.2726,-0.279,-0.2806,-0.2815,-0.2882,-0.2898,-0.2958,-0.2982,-0.2991,-0.3027,-0.2985,-0.2937,-0.2857,-0.2808,-0.2736,-0.2699,-0.2508,-0.2474,-0.2678,-0.2683,-0.2616,-0.2615,-0.2614,-0.2613,-0.2612,0,-0.2619,-0.2623,-0.2683,-0.2691,-0.2715,-0.2748,-0.2771,-0.2858,-0.2888,-0.2978,-0.2983,-0.2982,-0.2958,-0.2858,-0.2741,-0.2634,-0.2693,-0.2407,-0.2366,-0.2666,-0.2661,-0.2668,-0.2674,-0.2108,-0.2103,-0.2099,-0.2096,0,-0.2532,-0.2554,-0.2569,-0.2593,-0.2617,-0.2649,-0.2699,-0.2723,-0.2829,-0.2866,-0.2914,-0.2913,-0.2836,-0.2636,-0.2516,-0.2427,-0.2412,-0.2326,-0.265,-0.2198,-0.219,-0.2185,-0.2207,-0.206,-0.2064,-0.2067,-0.2069,-0.207,-0.2443,-0.2433,-0.2456,-0.2464,-0.2499,-0.2522,-0.2498,-0.2572,-0.2604,-0.2603,-0.2731,-0.2643,-0.2597,-0.2303,-0.2178,-0.2059,-0.2216,-0.2102,-0.2112,-0.2127,-0.2099,-0.2092,-0.1939,-0.1941,-0.1944,-0.1946,-0.1948,0,-0.2312,-0.232,-0.2326,-0.233,-0.2305,-0.2381,-0.2417,-0.2348,-0.2325,-0.2365,-0.2359,-0.2108,-0.1996,-0.1948,-0.1717,-0.1688,-0.1639,-0.1613,-0.1541,-0.1578,-0.161,-0.1555,-0.1251,-0.1248,-0.1246,-0.1245,0,0,-0.2241,-0.2192,-0.22,-0.2117,-0.2124,-0.2031,-0.2015,-0.1944,-0.1918,-0.1803,-0.1754,-0.1876,-0.1917,-0.1585,-0.1502,-0.1345,-0.1443,-0.1276,-0.1836,-0.1787,-0.1817,-0.1892,-0.1849,0,0,0,0,0]},{"header":{"parameterUnit":"m.s-1","parameterCategory":2,"la1":30.2991,"la2":30.254,"lo1":-89.0895,"lo2":-89.0444,"dy":0.0017,"dx":0.0017,"nx":28,"ny":28,"refTime":"2024-02-04T03:00:00:Z","depth":"2","parameterNumber":3,"parameterNumberName":"V-component_of_CURRENTS"},"data":[0,0,0,0,0,0,0,0,0,0,0,0,0,0,0,0,0,0,0,0,0,0,0,0,0,0,0,0,0,0,0,0,0,0,0,0,0,0,0,0,0,0,0,0,0,0,0,0,0,0,0,0,0,0,0,0,0,0,-0.0477,-0.0476,0,-0.0411,-0.041,-0.0409,-0.0355,-0.0355,-0.0355,-0.0354,-0.0236,-0.0233,-0.023,0,0,0,0,0,0,0,0,0,0,0,0,0,-0.0507,-0.0507,-0.0477,-0.0476,-0.0476,-0.0411,-0.041,-0.0409,-0.0355,-0.0355,-0.0354,-0.0354,-0.0237,-0.0233,-0.023,0,0,0,0,0,0,0,0,0,0,0,0,0,-0.0472,-0.0507,-0.0477,-0.0442,-0.0439,-0.0411,-0.041,-0.0408,-0.0356,-0.0355,-0.0354,-0.0354,-0.0238,-0.0234,-0.023,-0.0216,0,0,-0.0217,-0.0215,0,0,0,0,0,0,0,0,-0.0474,-0.047,-0.0448,-0.0445,-0.0441,-0.0392,-0.0377,-0.0342,-0.0356,-0.0386,-0.0354,-0.0353,-0.0285,-0.0277,-0.0264,-0.0211,-0.0206,-0.0217,-0.0214,-0.0212,-0.0211,0,0,0,0,0,0,0,-0.0476,-0.0473,-0.0449,-0.0448,-0.0443,-0.0413,-0.0407,-0.037,-0.0337,-0.0383,-0.0379,-0.0374,-0.0282,-0.0268,-0.0261,-0.0204,-0.0217,-0.0213,-0.021,-0.0209,-0.0115,-0.0115,0,0,0,0,0,0,-0.0491,-0.0475,-0.0451,-0.0447,-0.0458,-0.0413,-0.0407,-0.0407,-0.0339,-0.0328,-0.0375,-0.0372,-0.0276,-0.0266,-0.0256,-0.0223,-0.0212,-0.0208,-0.0206,-0.0115,-0.0115,-0.0115,0,0,0,0,0,0,-0.0492,-0.049,-0.0454,-0.0461,-0.0454,-0.0414,-0.0414,-0.0406,-0.0393,-0.0334,-0.0322,-0.037,-0.0275,-0.0262,-0.0226,-0.0218,-0.0206,-0.0203,-0.0115,-0.0115,-0.0115,-0.0164,0,0,0,0,0,0,-0.0493,-0.0491,-0.0497,-0.0462,-0.0454,-0.0443,-0.0414,-0.0405,-0.0391,-0.0387,-0.0325,-0.0314,-0.0273,-0.0232,-0.0222,-0.0212,-0.0199,-0.0115,-0.0115,-0.0115,-0.0163,-0.0166,-0.0169,0,0,0,0,0,-0.0495,-0.0509,-0.0498,-0.0495,-0.0464,-0.0443,-0.0437,-0.0404,-0.0392,-0.039,-0.0348,-0.0316,-0.0224,-0.0229,-0.0217,-0.0206,-0.0115,-0.0115,-0.0115,-0.0161,-0.0165,-0.0169,0,0,0,0,0,0,-0.0524,-0.0504,-0.0491,-0.0498,-0.0475,-0.0435,-0.0433,-0.0411,-0.0378,-0.0374,-0.0317,-0.0303,-0.0269,-0.0234,-0.0241,-0.0179,-0.0164,-0.0161,-0.0203,-0.0206,-0.0209,-0.0215,-0.0196,0,0,0,0,0,-0.0535,-0.0542,-0.0511,-0.0518,-0.0509,-0.0472,-0.0461,-0.044,-0.0406,-0.0391,-0.0348,-0.0301,-0.0259,-0.0232,-0.0194,-0.0161,-0.0121,-0.0145,-0.0148,-0.0151,-0.0147,-0.009,-0.0088,-0.0115,-0.0115,-0.0115,0,0,-0.0551,-0.0539,-0.0544,-0.0525,-0.0504,-0.0497,-0.0464,-0.0452,-0.0441,-0.0383,-0.0356,-0.0314,-0.0256,-0.0219,-0.0199,-0.0187,-0.0123,-0.0151,-0.0154,-0.0148,-0.009,-0.0087,-0.0085,-0.0115,-0.0115,-0.0115,0,0,-0.0585,-0.0572,-0.0588,-0.0571,-0.0548,-0.0522,-0.0522,-0.0485,-0.0462,-0.0434,-0.0388,-0.0342,-0.0285,-0.0233,-0.0201,-0.0198,-0.0147,-0.0189,-0.0199,-0.0145,-0.0142,-0.0139,-0.0087,-0.0079,-0.0184,-0.0184,-0.0184,0,-0.0604,-0.0617,-0.0589,-0.0593,-0.0584,-0.0538,-0.0545,-0.0514,-0.0469,-0.0445,-0.0434,-0.0335,-0.0288,-0.0226,-0.0223,-0.0203,-0.0169,-0.0191,-0.0149,-0.0145,-0.0141,-0.0088,-0.0079,-0.0186,-0.0186,-0.0185,-0.0185,0,-0.0646,-0.0652,-0.0658,-0.0649,-0.0632,-0.0633,-0.0587,-0.0565,-0.0533,-0.0493,-0.0435,-0.0368,-0.0304,-0.0282,-0.0249,-0.0194,-0.0178,-0.0166,-0.0141,-0.0141,-0.0086,-0.0075,-0.0189,-0.0189,-0.0188,-0.0187,0,0,-0.0701,-0.0693,-0.0694,-0.0699,-0.0663,-0.0656,-0.063,-0.059,-0.0568,-0.0511,-0.0471,-0.0392,-0.0347,-0.0308,-0.0255,-0.0201,-0.0142,-0.0175,-0.0171,-0.0127,-0.0023,0.0032,0.0049,-0.0126,-0.0125,-0.0124,0.0004,0,-0.0743,-0.0775,-0.0748,-0.0763,-0.0775,-0.0718,-0.0698,-0.0649,-0.0596,-0.0543,-0.0454,-0.0404,-0.0358,-0.0329,-0.0265,-0.0171,-0.0116,-0.0178,-0.0026,-0.0021,0.0025,0.0063,0.0008,0.0121,0.0014,0.0016,0.0018,0,-0.0791,-0.0807,-0.0839,-0.0825,-0.0822,-0.0818,-0.077,-0.0744,-0.0649,-0.0603,-0.0522,-0.0454,-0.0351,-0.0328,-0.0157,-0.0201,-0.0118,-0.0048,-0.0042,0.0036,0.0054,0.0106,0.0145,0.0036,0.0035,0.0033,0.0032,0,-0.0855,-0.0864,-0.0895,-0.0892,-0.0869,-0.0865,-0.0844,-0.0768,-0.0741,-0.0642,-0.0604,-0.0475,-0.0409,-0.0285,-0.0127,-0.0145,0.0057,0.0051,0.0179,0.0183,0.0183,0.0185,0.0159,0.0159,0.0159,0.0159,0.0158,0,-0.0913,-0.0934,-0.0932,-0.0952,-0.0979,-0.0931,-0.093,-0.0883,-0.0807,-0.0769,-0.0644,-0.0576,-0.0398,-0.0257,-0.0126,0.0078,0.0064,0.0194,0.0228,0.0164,0.0163,0.0122,0.0116,0.0163,0.0162,0.0161,0.0161,0,-0.0977,-0.0976,-0.1014,-0.1013,-0.1016,-0.1036,-0.1009,-0.0999,-0.0912,-0.0855,-0.0828,-0.0646,-0.0446,-0.0254,-0.0035,0.0083,0.0262,0.0328,0.0246,0.027,0.0346,0.0336,0.0485,0.0489,0.0491,0.0493,0.0495,0,-0.1013,-0.1044,-0.1077,-0.111,-0.1116,-0.1133,-0.1142,-0.107,-0.1047,-0.089,-0.0864,-0.0659,-0.049,-0.0125,0.0107,0.0364,0.0351,0.0455,0.0418,0.0366,0.0384,0.037,0.0356,0.0392,0.0393,0.0394,0.0394,0,-0.1081,-0.1093,-0.1129,-0.1207,-0.1239,-0.1262,-0.1261,-0.1254,-0.1148,-0.1064,-0.0904,-0.0754,-0.0388,-0.0092,0.0246,0.0376,0.0414,0.048,0.0462,0.0321,0.029,0.0303,0.0291,0.0401,0.04,0.04,0.0399,0.0399,-0.1125,-0.1174,-0.1229,-0.13,-0.1343,-0.1376,-0.1385,-0.1343,-0.1284,-0.1129,-0.0962,-0.0706,-0.0401,0.0081,0.0325,0.0527,0.0517,0.055,0.0543,0.0536,0.0505,0.0481,0.0622,0.0622,0.0623,0.0623,0.0624,0,-0.1175,-0.1236,-0.1315,-0.1392,-0.1452,-0.145,-0.1449,-0.1411,-0.133,-0.1157,-0.0966,-0.0614,-0.0257,0.0054,0.0387,0.0602,0.0552,0.0624,0.0516,0.0508,0.0502,0.0464,0.0574,0.0575,0.0575,0.0576,0,0,-0.1203,-0.1294,-0.1342,-0.1465,-0.1516,-0.1549,-0.1541,-0.1453,-0.132,-0.113,-0.0939,-0.0657,-0.0259,-0.0025,0.0247,0.0422,0.0399,0.0423,0.0437,0.0267,0.0258,0.0432,0.0364,0,0,0,0,0]}],[{"header":{"parameterUnit":"m.s-1","parameterCategory":2,"la1":30.2991,"la2":30.254,"lo1":-89.0895,"lo2":-89.0444,"dy":0.0017,"dx":0.0017,"nx":28,"ny":28,"refTime":"2024-02-04T03:00:00:Z","depth":"4","parameterNumber":2,"parameterNumberName":"U-component_of_CURRENTS"},"data":[0,0,0,0,0,0,0,0,0,0,0,0,0,0,0,0,0,0,0,0,0,0,0,0,0,0,0,0,0,0,0,0,0,0,0,0,0,0,0,0,0,0,0,0,0,0,0,0,0,0,0,0,0,0,0,0,0,0,-0.1844,-0.1845,0,-0.1919,-0.192,-0.192,-0.1964,-0.1965,-0.1965,-0.1965,-0.2044,-0.2045,-0.2047,0,0,0,0,0,0,0,0,0,0,0,0,0,-0.1746,-0.1747,-0.1844,-0.1845,-0.1846,-0.1919,-0.192,-0.1921,-0.1964,-0.1965,-0.1965,-0.1965,-0.2043,-0.2045,-0.2047,0,0,0,0,0,0,0,0,0,0,0,0,0,-0.18,-0.1747,-0.1844,-0.1878,-0.1882,-0.1919,-0.192,-0.1921,-0.1964,-0.1965,-0.1965,-0.1966,-0.2042,-0.2045,-0.2048,-0.2055,0,0,-0.2056,-0.2057,0,0,0,0,0,0,0,0,-0.1797,-0.1803,-0.1872,-0.1876,-0.188,-0.1934,-0.1914,-0.1966,-0.1964,-0.1931,-0.1965,-0.1966,-0.2008,-0.2013,-0.2024,-0.2059,-0.2062,-0.2056,-0.2058,-0.2059,-0.206,0,0,0,0,0,0,0,-0.1793,-0.18,-0.1872,-0.1873,-0.1878,-0.1891,-0.1899,-0.1924,-0.1965,-0.1934,-0.1938,-0.1948,-0.201,-0.2022,-0.2027,-0.2063,-0.2056,-0.2058,-0.206,-0.2061,-0.2165,-0.2167,0,0,0,0,0,0,-0.1786,-0.1797,-0.187,-0.1875,-0.184,-0.1893,-0.1902,-0.1915,-0.1965,-0.1973,-0.1948,-0.195,-0.2017,-0.2023,-0.203,-0.2099,-0.2059,-0.2061,-0.2063,-0.2164,-0.2166,-0.2167,0,0,0,0,0,0,-0.1783,-0.1792,-0.1867,-0.1838,-0.1849,-0.1894,-0.1909,-0.1916,-0.196,-0.1975,-0.1984,-0.1987,-0.2017,-0.2026,-0.2076,-0.21,-0.2063,-0.2065,-0.2163,-0.2165,-0.2166,-0.2201,0,0,0,0,0,0,-0.178,-0.179,-0.1815,-0.1838,-0.185,-0.1908,-0.1909,-0.1917,-0.1964,-0.1969,-0.2012,-0.2017,-0.2018,-0.2072,-0.2079,-0.2103,-0.2067,-0.2161,-0.2164,-0.2166,-0.2199,-0.2204,-0.2209,0,0,0,0,0,-0.1776,-0.1801,-0.1816,-0.1825,-0.1877,-0.1909,-0.1918,-0.1949,-0.1966,-0.199,-0.2019,-0.2018,-0.209,-0.2076,-0.2083,-0.2109,-0.216,-0.2163,-0.2166,-0.2197,-0.2203,-0.2209,0,0,0,0,0,0,-0.1772,-0.1809,-0.1825,-0.1861,-0.1893,-0.1918,-0.195,-0.1969,-0.2012,-0.2027,-0.2038,-0.2046,-0.2096,-0.2101,-0.2085,-0.2145,-0.2123,-0.2128,-0.2144,-0.2151,-0.2155,-0.2145,-0.2069,0,0,0,0,0,-0.1782,-0.1812,-0.1844,-0.1877,-0.1896,-0.193,-0.1955,-0.1977,-0.2009,-0.2031,-0.206,-0.2088,-0.2107,-0.2129,-0.2149,-0.219,-0.2169,-0.2209,-0.2214,-0.2218,-0.2215,-0.2198,-0.2201,-0.2175,-0.2175,-0.2175,0,0,-0.179,-0.1815,-0.1834,-0.1879,-0.1909,-0.1941,-0.1947,-0.1995,-0.2026,-0.2032,-0.2096,-0.2112,-0.2122,-0.2161,-0.2184,-0.2174,-0.2217,-0.2222,-0.2225,-0.2219,-0.2201,-0.2203,-0.2205,-0.2177,-0.2177,-0.2177,0,0,-0.1808,-0.1846,-0.1874,-0.1904,-0.1954,-0.1974,-0.1995,-0.2041,-0.207,-0.2126,-0.213,-0.2158,-0.2212,-0.2209,-0.2215,-0.2261,-0.2243,-0.2279,-0.2299,-0.2283,-0.2284,-0.2285,-0.2267,-0.2266,-0.2282,-0.2282,-0.2282,0,-0.1819,-0.1856,-0.1888,-0.1921,-0.1951,-0.1991,-0.2026,-0.2058,-0.2117,-0.2139,-0.2156,-0.2213,-0.2226,-0.2244,-0.2261,-0.227,-0.2261,-0.2275,-0.2287,-0.2288,-0.2288,-0.2269,-0.2268,-0.2284,-0.2284,-0.2284,-0.2284,0,-0.1845,-0.1889,-0.191,-0.1963,-0.2,-0.204,-0.2082,-0.2129,-0.2172,-0.2196,-0.2247,-0.2261,-0.2289,-0.2299,-0.2298,-0.231,-0.2303,-0.2293,-0.2268,-0.2292,-0.2272,-0.2269,-0.2287,-0.2287,-0.2286,-0.2285,0,0,-0.1823,-0.1911,-0.1922,-0.1956,-0.2028,-0.2055,-0.2115,-0.2165,-0.2202,-0.2256,-0.2292,-0.2322,-0.2333,-0.2339,-0.2339,-0.2327,-0.2323,-0.232,-0.2318,-0.2294,-0.2292,-0.2162,-0.2147,-0.232,-0.232,-0.232,-0.2277,0,-0.1835,-0.1898,-0.1943,-0.2009,-0.2043,-0.2102,-0.2151,-0.2204,-0.2251,-0.2298,-0.2312,-0.2349,-0.2347,-0.2367,-0.2356,-0.2336,-0.2319,-0.2336,-0.2278,-0.2276,-0.2151,-0.214,-0.2319,-0.2275,-0.2275,-0.2274,-0.2274,0,-0.183,-0.1879,-0.1945,-0.2032,-0.2054,-0.2105,-0.2185,-0.2233,-0.2296,-0.2334,-0.2368,-0.2385,-0.2393,-0.2383,-0.235,-0.2367,-0.2334,-0.2307,-0.2305,-0.2166,-0.2141,-0.2245,-0.2269,-0.2269,-0.227,-0.227,-0.227,0,-0.1775,-0.1873,-0.1928,-0.1959,-0.2064,-0.2113,-0.2172,-0.2247,-0.2286,-0.2355,-0.2388,-0.2404,-0.2416,-0.2385,-0.2348,-0.2356,-0.2296,-0.2294,-0.214,-0.2132,-0.2248,-0.2247,-0.2252,-0.2252,-0.2252,-0.2252,-0.2252,0,-0.1742,-0.1789,-0.1916,-0.1944,-0.2013,-0.2098,-0.2168,-0.2228,-0.2308,-0.2337,-0.2401,-0.2409,-0.2418,-0.2392,-0.2353,-0.2232,-0.2298,-0.2129,-0.2103,-0.2266,-0.2267,-0.2246,-0.2246,-0.225,-0.2251,-0.2251,-0.2251,0,-0.1658,-0.1745,-0.1813,-0.1943,-0.1987,-0.2035,-0.2162,-0.2198,-0.2295,-0.2333,-0.2357,-0.2413,-0.2372,-0.2355,-0.2296,-0.2214,-0.2128,-0.2068,-0.2244,-0.2232,-0.1977,-0.198,-0.1885,-0.1879,-0.1875,-0.1871,-0.1868,0,-0.1615,-0.1646,-0.1792,-0.1833,-0.1898,-0.199,-0.2044,-0.217,-0.2201,-0.2308,-0.2302,-0.2318,-0.2327,-0.2133,-0.2144,-0.204,-0.2012,-0.1963,-0.1961,-0.195,-0.1935,-0.1945,-0.1953,-0.1861,-0.186,-0.1859,-0.1858,0,-0.1525,-0.1595,-0.1649,-0.1739,-0.1813,-0.1877,-0.1966,-0.1975,-0.2098,-0.2213,-0.2176,-0.214,-0.2087,-0.2027,-0.1956,-0.1889,-0.1993,-0.1917,-0.1925,-0.1923,-0.1921,-0.1913,-0.1926,-0.1843,-0.1845,-0.1847,-0.1847,0,-0.1451,-0.1467,-0.1552,-0.1609,-0.1699,-0.1723,-0.1794,-0.1827,-0.1876,-0.2003,-0.1985,-0.2007,-0.2068,-0.1947,-0.1888,-0.1805,-0.1772,-0.1709,-0.1728,-0.1745,-0.1716,-0.1694,-0.1505,0,0,0,0,0,-0.1364,-0.1365,-0.1414,-0.1465,-0.1549,-0.1595,-0.1715,-0.1788,-0.1914,-0.1835,-0.1905,-0.1851,-0.1769,-0.1788,-0.1662,-0.1808,-0.1771,-0.1656,-0.1709,-0.1759,-0.1777,-0.1753,0,0,0,0,0,0,-0.1304,-0.1342,-0.136,-0.1329,-0.1332,-0.1402,-0.1468,-0.1561,-0.1531,-0.1665,-0.1623,-0.1731,-0.1667,-0.179,-0.1616,-0.1618,-0.1613,-0.1685,-0.168,-0.1749,-0.1765,-0.1779,-0.1761,0,0,0,0,0]},{"header":{"parameterUnit":"m.s-1","parameterCategory":2,"la1":30.2991,"la2":30.254,"lo1":-89.0895,"lo2":-89.0444,"dy":0.0017,"dx":0.0017,"nx":28,"ny":28,"refTime":"2024-02-04T03:00:00:Z","depth":"4","parameterNumber":3,"parameterNumberName":"V-component_of_CURRENTS"},"data":[0,0,0,0,0,0,0,0,0,0,0,0,0,0,0,0,0,0,0,0,0,0,0,0,0,0,0,0,0,0,0,0,0,0,0,0,0,0,0,0,0,0,0,0,0,0,0,0,0,0,0,0,0,0,0,0,0,0,-0.0379,-0.0379,0,-0.0346,-0.0345,-0.0345,-0.0313,-0.0313,-0.0312,-0.0312,-0.0235,-0.0233,-0.0231,0,0,0,0,0,0,0,0,0,0,0,0,0,-0.0383,-0.0383,-0.0379,-0.0379,-0.0379,-0.0346,-0.0345,-0.0345,-0.0313,-0.0313,-0.0312,-0.0312,-0.0235,-0.0233,-0.0231,0,0,0,0,0,0,0,0,0,0,0,0,0,-0.0368,-0.0383,-0.0379,-0.036,-0.0358,-0.0346,-0.0345,-0.0344,-0.0313,-0.0313,-0.0312,-0.0312,-0.0236,-0.0233,-0.0231,-0.0223,0,0,-0.0222,-0.0221,0,0,0,0,0,0,0,0,-0.0369,-0.0368,-0.0363,-0.0361,-0.0359,-0.0334,-0.0318,-0.0302,-0.0313,-0.0329,-0.0312,-0.0312,-0.0265,-0.026,-0.0253,-0.0219,-0.0216,-0.0222,-0.0221,-0.0219,-0.0219,0,0,0,0,0,0,0,-0.037,-0.0369,-0.0365,-0.0363,-0.036,-0.0341,-0.0339,-0.0315,-0.0298,-0.0328,-0.0325,-0.0324,-0.0263,-0.0256,-0.0251,-0.0215,-0.0222,-0.022,-0.0218,-0.0217,-0.017,-0.0171,0,0,0,0,0,0,-0.0379,-0.037,-0.0366,-0.0364,-0.0364,-0.0342,-0.0339,-0.0342,-0.0299,-0.0293,-0.0324,-0.0322,-0.0261,-0.0254,-0.0248,-0.0236,-0.0219,-0.0217,-0.0215,-0.017,-0.017,-0.0171,0,0,0,0,0,0,-0.0379,-0.0379,-0.0367,-0.0367,-0.0364,-0.0343,-0.0346,-0.0341,-0.0338,-0.0297,-0.029,-0.0326,-0.026,-0.0252,-0.0234,-0.0232,-0.0216,-0.0213,-0.0169,-0.017,-0.0171,-0.021,0,0,0,0,0,0,-0.0379,-0.0379,-0.0388,-0.0368,-0.0364,-0.0367,-0.0346,-0.0341,-0.0338,-0.0336,-0.0297,-0.0289,-0.0259,-0.0239,-0.0232,-0.0228,-0.0211,-0.0169,-0.017,-0.017,-0.0209,-0.0212,-0.0215,0,0,0,0,0,-0.038,-0.0395,-0.0389,-0.0389,-0.0377,-0.0368,-0.0365,-0.0347,-0.0339,-0.0342,-0.0316,-0.029,-0.0238,-0.0237,-0.0229,-0.0224,-0.0169,-0.017,-0.017,-0.0207,-0.0211,-0.0215,0,0,0,0,0,0,-0.0402,-0.0393,-0.0386,-0.0398,-0.0387,-0.0363,-0.0368,-0.0355,-0.0338,-0.0337,-0.0296,-0.0287,-0.0272,-0.0246,-0.0246,-0.0214,-0.0198,-0.0198,-0.0229,-0.0233,-0.0236,-0.0233,-0.0209,0,0,0,0,0,-0.0412,-0.0422,-0.0405,-0.0416,-0.0413,-0.0392,-0.0388,-0.0377,-0.0358,-0.035,-0.0323,-0.0294,-0.0268,-0.025,-0.0229,-0.021,-0.0172,-0.0202,-0.0205,-0.0208,-0.0201,-0.0147,-0.0144,-0.0173,-0.0173,-0.0173,0,0,-0.0425,-0.0421,-0.0428,-0.0422,-0.0412,-0.0413,-0.0389,-0.0389,-0.0386,-0.0344,-0.0335,-0.0309,-0.0269,-0.025,-0.024,-0.0227,-0.0182,-0.0209,-0.0212,-0.0202,-0.0147,-0.0144,-0.0141,-0.0174,-0.0174,-0.0174,0,0,-0.0455,-0.0452,-0.0469,-0.0462,-0.0453,-0.0438,-0.0441,-0.0422,-0.0409,-0.04,-0.0367,-0.0338,-0.0308,-0.0269,-0.0247,-0.0255,-0.0208,-0.0254,-0.0257,-0.0206,-0.0203,-0.0199,-0.0156,-0.0148,-0.0247,-0.0247,-0.0248,0,-0.0471,-0.0487,-0.0472,-0.0481,-0.0479,-0.0452,-0.0463,-0.0447,-0.0424,-0.0408,-0.0405,-0.0342,-0.0312,-0.0266,-0.027,-0.026,-0.0228,-0.0245,-0.0209,-0.0205,-0.02,-0.0156,-0.0147,-0.0249,-0.0249,-0.0249,-0.0249,0,-0.0507,-0.0519,-0.0528,-0.053,-0.0524,-0.0531,-0.0506,-0.0497,-0.048,-0.0454,-0.0418,-0.0373,-0.0328,-0.0317,-0.0295,-0.0249,-0.0237,-0.0226,-0.0197,-0.02,-0.0154,-0.0143,-0.0252,-0.0252,-0.0251,-0.0251,0,0,-0.0543,-0.0554,-0.0556,-0.0564,-0.0551,-0.0551,-0.0542,-0.0519,-0.0506,-0.0473,-0.0444,-0.0395,-0.036,-0.0333,-0.0294,-0.0246,-0.0193,-0.0226,-0.0223,-0.018,-0.0084,-0.009,-0.0079,-0.0177,-0.0176,-0.0174,-0.0066,0,-0.0575,-0.0609,-0.0598,-0.0621,-0.0633,-0.0602,-0.0595,-0.0567,-0.0534,-0.0498,-0.0432,-0.0399,-0.0368,-0.0348,-0.0292,-0.0218,-0.0168,-0.0224,-0.0089,-0.0085,-0.0087,-0.0067,-0.0169,-0.0058,-0.0056,-0.0054,-0.0053,0,-0.0608,-0.0627,-0.0663,-0.0664,-0.0666,-0.0675,-0.0649,-0.0637,-0.0572,-0.0542,-0.048,-0.043,-0.0347,-0.0332,-0.0189,-0.0228,-0.0159,-0.0103,-0.0097,-0.0078,-0.0072,-0.0052,-0.0034,-0.0035,-0.0037,-0.0038,-0.0039,0,-0.0641,-0.0665,-0.0697,-0.0701,-0.0701,-0.0708,-0.0703,-0.0656,-0.0642,-0.0569,-0.0543,-0.0437,-0.0386,-0.028,-0.016,-0.0173,-0.0006,-0.0007,0.0055,0.0055,0.0045,0.0041,0.0091,0.0091,0.0091,0.009,0.009,0,-0.0671,-0.0696,-0.0722,-0.0741,-0.0775,-0.0754,-0.0765,-0.0738,-0.0691,-0.0667,-0.0572,-0.0521,-0.0373,-0.026,-0.0155,-0.0013,0.0004,0.0065,0.0088,0.0023,0.0015,0.0052,0.0046,0.0095,0.0094,0.0093,0.0092,0,-0.0696,-0.0715,-0.0757,-0.0782,-0.0797,-0.0821,-0.0829,-0.0827,-0.0773,-0.0737,-0.0717,-0.0577,-0.0424,-0.0271,-0.0089,-0.0013,0.0123,0.0166,0.0089,0.0104,0.0148,0.0138,0.0249,0.025,0.025,0.0251,0.0251,0,-0.0709,-0.0738,-0.08,-0.0839,-0.086,-0.0893,-0.0915,-0.088,-0.0866,-0.0767,-0.0745,-0.0596,-0.0489,-0.0218,-0.0069,0.0145,0.0162,0.0225,0.0186,0.0155,0.0167,0.0156,0.0146,0.0252,0.0253,0.0253,0.0253,0,-0.0733,-0.0765,-0.0803,-0.089,-0.0938,-0.0976,-0.0996,-0.0988,-0.0929,-0.0886,-0.0748,-0.0597,-0.0418,-0.0213,-0.0045,0.01,0.0182,0.0232,0.0231,0.0195,0.0161,0.0169,0.0159,0.0255,0.0255,0.0255,0.0255,0,-0.075,-0.079,-0.0855,-0.0924,-0.0996,-0.1034,-0.1038,-0.0999,-0.0969,-0.0847,-0.0803,-0.0596,-0.0472,-0.0235,-0.0081,0.0067,0.0092,0.0117,0.0123,0.0122,0.0046,-0.0019,0.0052,0,0,0,0,0,-0.0756,-0.0807,-0.0881,-0.0957,-0.103,-0.1064,-0.1079,-0.1062,-0.1004,-0.0913,-0.085,-0.0677,-0.0413,-0.0288,-0.014,-0.0093,0.0095,0.008,0.0121,0.0269,0.0266,0.0197,0,0,0,0,0,0,-0.0762,-0.0836,-0.0878,-0.097,-0.1024,-0.1088,-0.1099,-0.1061,-0.0988,-0.0909,-0.0758,-0.0664,-0.0401,-0.0497,-0.0143,-0.0096,-0.0057,0.0213,0.0215,0.027,0.0268,0.0266,0.0194,0,0,0,0,0]}]]